This is the latest recevied weather packets stored in our database for station/object K6TTR. If no packets are shown the sender has not sent any weather packets the latest 10 day(s).
| Time | Temp. | Humidity | Pressure | Rain* | Wind** | Luminosity | Snow |
|---|---|---|---|---|---|---|---|
| 1777916917 | 10.56° C | 77% | 1014.1 hPa | 0 mm | - | 236 W/m² | - |
| 1777916624 | 10.56° C | 77% | 1014 hPa | 0 mm | - | 213 W/m² | - |
| 1777916330 | 10.56° C | 77% | 1013.9 hPa | 0 mm | - | 258 W/m² | - |
| 1777916017 | 10.56° C | 77% | 1013.9 hPa | 0 mm | - | 308 W/m² | - |
| 1777915722 | 10.56° C | 76% | 1013.9 hPa | 0 mm | - | 295 W/m² | - |
| 1777915424 | 10.56° C | 78% | 1013.9 hPa | 0 mm | - | 336 W/m² | - |
| 1777915127 | 10.56° C | 78% | 1013.8 hPa | 0 mm | - | 269 W/m² | - |
| 1777914814 | 10.56° C | 78% | 1013.8 hPa | 0 mm | - | 308 W/m² | - |
| 1777914521 | 10.56° C | 79% | 1013.7 hPa | 0 mm | - | 295 W/m² | - |
| 1777914224 | 10° C | 80% | 1013.7 hPa | 0 mm | - | 274 W/m² | - |
| 1777913929 | 10° C | 80% | 1013.7 hPa | 0 mm | - | 313 W/m² | - |
| 1777913612 | 10° C | 81% | 1013.8 hPa | 0 mm | - | 257 W/m² | - |
| 1777913319 | 9.44° C | 82% | 1013.9 hPa | 0 mm | - | 236 W/m² | - |
| 1777913023 | 9.44° C | 82% | 1013.9 hPa | 0 mm | - | 332 W/m² | - |
| 1777912730 | 9.44° C | 82% | 1013.8 hPa | 0 mm | - | 276 W/m² | - |
| 1777912413 | 9.44° C | 84% | 1013.9 hPa | 0 mm | - | 352 W/m² | - |
| 1777912118 | 8.89° C | 83% | 1014 hPa | 0 mm | - | 171 W/m² | - |
| 1777911824 | 8.89° C | 83% | 1014 hPa | 0 mm | - | 107 W/m² | - |
| 1777911513 | 8.89° C | 84% | 1014.1 hPa | 0 mm | - | 327 W/m² | - |
| 1777911216 | 8.33° C | 84% | 1014.1 hPa | 0 mm | - | 211 W/m² | - |
| 1777910921 | 8.33° C | 84% | 1014.1 hPa | 0 mm | - | 171 W/m² | - |
| 1777910626 | 8.33° C | 85% | 1014.2 hPa | 0 mm | - | 174 W/m² | - |
| 1777910312 | 8.33° C | 85% | 1014 hPa | 0 mm | - | 105 W/m² | - |
| 1777910018 | 8.33° C | 85% | 1014 hPa | 0 mm | - | 98 W/m² | - |
| 1777909722 | 8.33° C | 85% | 1014 hPa | 0 mm | - | 169 W/m² | - |
* Rain latest hour (hover to see other rain measurements)
** Current wind speed in m/s (hover to see current wind gust speed)